Location: Cañada de la Miga
(34.7595°N, 106.2317°W)
Time: 10:22:00
(UTC+00:00)

A-11 Canister half - Pass Details

Date: 03 December 2021
Orbit: 1516 x 1684 km, 47.2° (Epoch: 16 January)

Event Time Altitude Azimuth Distance (km) Brightness Sun altitude
Rises 13:23:10 0° 226° (SW) 4,714 11.3 -7.0°
Reaches altitude 10° 13:26:10 10° 226° (SW) 3,752 10.8 -6.4°
Maximum altitude 13:35:44 80° 141° (SE) 1,634 9.3 -4.6°
Drops below altitude 10° 13:45:41 10° 56° (NE) 3,897 11.6 -2.7°
Sets 13:48:52 0° 56° (NE) 4,903 12.1 -2.2°
